Regional Weather Roundup
Issued by NWS Charleston, WV

Home | Current Version | Previous Version | Text Only | Print | Product List | Glossary On
Versions: 1 2 3 4 5 6 7 8 9 10 11 12 13 14 15 16 17 18 19 20 21 22 23 24 25 26 27 28
000
ASUS41 KRLX 172110
RWRRLX
West Virginia Regional Weather Roundup
National Weather Service Charleston WV
500 PM EDT THU APR 17 2014

Note: "fair" indicates few or no clouds below 12,000 feet with no
significant weather and/or obstructions to visibility.

WVZ003-172200-
Northern Panhandle of West Virginia

CITY           SKY/WX    TMP DP  RH WIND       PRES   REMARKS
WHEELING       SUNNY     64  26  23 VRB6      30.33F
$$

WVZ009-172200-
Northwest West Virginia

CITY           SKY/WX    TMP DP  RH WIND       PRES   REMARKS
PARKERSBURG    SUNNY     67  25  20 VRB5      30.34F
$$

WVZ006-172200-
Western West Virginia

CITY           SKY/WX    TMP DP  RH WIND       PRES   REMARKS
HUNTINGTON     SUNNY     69  23  17 VRB3      30.29F
$$

WVZ015-172200-
West Central West Virginia

CITY           SKY/WX    TMP DP  RH WIND       PRES   REMARKS
CHARLESTON     MOSUNNY   69  22  16 S6        30.30F
$$

WVZ031-172200-
North Central West Virginia

CITY           SKY/WX    TMP DP  RH WIND       PRES   REMARKS
CLARKSBURG     SUNNY     66  22  18 VRB5      30.33F
MORGANTOWN     SUNNY     65  25  22 SE10      30.36F
$$

WVZ035-042-045-172200-
South Central West Virginia

CITY           SKY/WX    TMP DP  RH WIND       PRES   REMARKS
BECKLEY        SUNNY     59  24  26 SE7       30.37F
BLUEFIELD      SUNNY     59  23  25 E8G20     30.38F
LEWISBURG      SUNNY     56  20  25 SE7       30.41F
$$

WVZ047-172200-
Northern Mountains of West Virginia

CITY           SKY/WX    TMP DP  RH WIND       PRES   REMARKS
ELKINS         SUNNY     64  22  20 VRB6      30.35F
$$

WVZ052-172200-
Eastern Panhandle of West Virginia

CITY           SKY/WX    TMP DP  RH WIND       PRES   REMARKS
MARTINSBURG    SUNNY     57  26  30 MISG      30.52F
PETERSBURG     SUNNY     63  32  31 E3        30.45F
$$



USA.gov is the U.S. government's official web portal to all federal, state and local government web resources and services.